TimeEST,TemperatureF,Dew PointF,Humidity,Sea Level PressureIn,VisibilityMPH,Wind Direction,Wind SpeedMPH,Gust SpeedMPH,PrecipitationIn,Events,Conditions,WindDirDegrees,DateUTC
12:53 AM,37.0,24.1,59,29.96,10.0,North,6.9,-,N/A,,Clear,360,2012-11-09 05:53:00
1:53 AM,36.0,24.1,62,29.97,10.0,NNW,8.1,-,N/A,,Clear,340,2012-11-09 06:53:00
2:53 AM,34.0,24.1,67,29.98,10.0,NNW,5.8,-,N/A,,Clear,330,2012-11-09 07:53:00
3:53 AM,35.1,24.1,64,30.00,10.0,NNW,5.8,-,N/A,,Clear,330,2012-11-09 08:53:00
4:53 AM,35.1,24.1,64,30.02,10.0,NNW,6.9,-,N/A,,Clear,330,2012-11-09 09:53:00
5:53 AM,36.0,23.0,59,30.02,10.0,NNW,10.4,-,N/A,,Clear,330,2012-11-09 10:53:00
6:53 AM,35.1,23.0,61,30.06,10.0,NW,6.9,-,N/A,,Clear,320,2012-11-09 11:53:00
7:53 AM,37.9,24.1,57,30.08,10.0,NNW,5.8,-,N/A,,Clear,330,2012-11-09 12:53:00
8:53 AM,42.1,25.0,51,30.08,10.0,North,12.7,19.6,N/A,,Clear,350,2012-11-09 13:53:00
9:53 AM,45.0,25.0,46,30.10,10.0,NNW,17.3,23.0,N/A,,Clear,340,2012-11-09 14:53:00
10:53 AM,48.0,25.0,41,30.10,10.0,NNW,10.4,19.6,N/A,,Clear,340,2012-11-09 15:53:00
11:53 AM,50.0,25.0,38,30.09,10.0,NNW,9.2,-,N/A,,Clear,340,2012-11-09 16:53:00
12:53 PM,53.1,24.1,32,30.08,10.0,NNW,11.5,21.9,N/A,,Clear,330,2012-11-09 17:53:00
1:53 PM,53.1,25.0,34,30.07,10.0,NNW,12.7,19.6,N/A,,Clear,340,2012-11-09 18:53:00
2:53 PM,54.0,28.0,37,30.07,10.0,NNW,11.5,-,N/A,,Clear,330,2012-11-09 19:53:00
3:53 PM,54.0,27.0,35,30.09,10.0,NNW,6.9,-,N/A,,Clear,340,2012-11-09 20:53:00
4:53 PM,51.1,28.0,41,30.10,10.0,NNW,3.5,-,N/A,,Clear,330,2012-11-09 21:53:00
5:53 PM,48.9,28.9,46,30.13,10.0,North,4.6,-,N/A,,Clear,350,2012-11-09 22:53:00
6:53 PM,45.0,30.0,56,30.16,10.0,Calm,Calm,-,N/A,,Clear,0,2012-11-09 23:53:00
7:53 PM,42.1,30.0,62,30.18,10.0,Calm,Calm,-,N/A,,Clear,0,2012-11-10 00:53:00
8:53 PM,42.1,30.0,62,30.19,10.0,Calm,Calm,-,N/A,,Clear,0,2012-11-10 01:53:00
9:53 PM,37.0,30.0,76,30.19,10.0,NNW,4.6,-,N/A,,Clear,340,2012-11-10 02:53:00
10:53 PM,37.0,30.0,76,30.20,10.0,NNW,4.6,-,N/A,,Clear,330,2012-11-10 03:53:00
11:53 PM,37.0,30.0,76,30.21,10.0,Calm,Calm,-,N/A,,Clear,0,2012-11-10 04:53:00